Regional Weather Roundup
Issued by NWS

Home | Current Version | Previous Version | Graphics & Text | Print | Product List | Glossary Off
Versions: 1 2 3 4 5 6 7 8 9 10 11 12 13 14 15 16 17 18 19 20 21 22 23 24 25 26 27 28 29 30 31 32 33 34 35 36 37 38 39 40 41 42 43 44 45 46 47 48 49 50

555
ASUS43 KMKX 270221
RWRWI

WISCONSIN REGIONAL WEATHER ROUNDUP
NATIONAL WEATHER SERVICE MILWAUKEE/SULLIVAN WI
900 PM CDT SUN MAR 26 2017

NOTE: "FAIR" INDICATES FEW OR NO CLOUDS BELOW 12,000 FEET WITH NO
SIGNIFICANT WEATHER AND/OR OBSTRUCTIONS TO VISIBILITY.

WIZ001-002-006>008-014>016-023>028-270300-
NORTHWEST WISCONSIN

CITY           SKY/WX    TMP DP  RH WIND       PRES   REMARKS
SUPERIOR ARPT  CLOUDY    33  33  99 CALM      29.97S
ASHLAND        CLOUDY    33  32  96 N6        29.96S WCI  28
HAYWARD        CLOUDY    36  33  89 NE5       29.93S FOG     WCI  32
SIREN          CLOUDY    36  34  95 N3        29.95S
CUMBERLAND     CLOUDY    36  34  93 N6        29.92S WCI  31
RICE LAKE      CLOUDY    38  37  93 CALM      29.93R
CHETEK         CLOUDY    38  37  94 N5        29.91S WCI  35
LADYSMITH      CLOUDY    39  36  89 N7        29.92S WCI  34
EAU CLAIRE     CLOUDY    42  38  85 NW3       29.90S
MENOMONIE      CLOUDY    42  40  93 W3        29.91S
NEW RICHMOND   CLOUDY    38  38  98 N6        29.93S FOG     WCI  34
OSCEOLA        CLOUDY    38  38 100 N6        29.97R WCI  33
$$

WIZ003>005-009-010-017-018-270300-
NORTH CENTRAL WISCONSIN

CITY           SKY/WX    TMP DP  RH WIND       PRES   REMARKS
MANITOWISH WTR CLOUDY    32  32 100 N5        29.90R FOG     WCI  27
ARBOR VITAE    CLOUDY    37  36  96 N3        29.88S
WOODRUFF       CLOUDY    37  36  96 N3        29.88S
RHINELANDER    LGT RAIN  39  38  96 CALM      29.88R
EAGLE RIVER    RAIN      35  35 100 N5        29.88R WCI  31
LAND O LAKES   CLOUDY    35  35 100 N5        29.89S WCI  31
PHILLIPS       CLOUDY    35  35 100 N3        29.89S
TOMAHAWK       CLOUDY    37  36  96 NW3       29.89R FOG
MEDFORD        CLOUDY    38  37  98 N3        29.88S
MERRILL        DRIZZLE   38  38 100 CALM      29.88S
$$

WIZ029-030-035-036-043>047-270300-
CENTRAL WISCONSIN

CITY           SKY/WX    TMP DP  RH WIND       PRES   REMARKS
WAUSAU         LGT RAIN  38  38 100 CALM      29.87R FOG
MOSINEE        DRIZZLE   37  37 100 VRB3      29.89R
MARSHFIELD     LGT RAIN  38  37  97 N3        29.87S
STEVENS POINT  LGT RAIN  37  37 100 CALM      29.89S
WAUPACA        RAIN      40  39  95 CALM      29.89S
WAUTOMA        LGT RAIN  39  38  96 CALM      29.89S
WISC RAPIDS    LGT RAIN  39  39 100 NW3       29.90S
CAMP DOUGLAS   CLOUDY    39  39 100 NW3       29.90R FOG
$$

WIZ011>013-019>022-031-037>040-048>050-270300-
NORTHEAST WISCONSIN

CITY           SKY/WX    TMP DP  RH WIND       PRES   REMARKS
ANTIGO         LGT RAIN  36  36 100 NW5       29.87R WCI  32
SHAWANO        LGT RAIN  39  37  93 CALM      29.89S
OCONTO         CLOUDY    36  35  96 CALM      29.89R
STURGEON BAY   LGT RAIN  34  34 100 N10       29.88R VSB 3/4 WCI  26
GREEN BAY      CLOUDY    37  37 100 CALM      29.89R FOG
MANITOWOC      LGT RAIN  39  39 100 NW9       29.88R WCI  33
APPLETON       DRIZZLE   37  37 100 N6        29.87R WCI  33
CLINTONVILLE   LGT RAIN  37  36  93 N3        29.89S
OSHKOSH        LGT RAIN  40  38  93 N6        29.87S
$$

WIZ032>034-041-042-053>061-270300-
SOUTHWEST WISCONSIN

CITY           SKY/WX    TMP DP  RH WIND       PRES   REMARKS
LA CROSSE      CLOUDY    42  40  92 N6        29.90F
SPARTA         CLOUDY    40  39  99 CALM      29.91S
VIROQUA        CLOUDY    40  40 100 NW6       29.89R VSB 1/2
BOSCOBEL       CLOUDY    45  42  89 N3        29.90R
PRAIRIE DU CHI CLOUDY    43  41  91 NW5       29.91R
PLATTEVILLE    CLOUDY    45  45 100 W3        29.90R
$$

WIZ056-057-062-063-064-067-068-270300-
SOUTH CENTRAL WISCONSIN

CITY           SKY/WX    TMP DP  RH WIND       PRES   REMARKS
REEDSBURG      CLOUDY    39  39 100 CALM      29.89S
BARABOO/DELLS  CLOUDY    39  38  97 NW3       29.89R
LONE ROCK      CLOUDY    43  40  89 CALM      29.90S
MINERAL POINT  CLOUDY    43  43 100 N6        29.88S FOG
MADISON        CLOUDY    41  39  93 NW3       29.88R
MIDDLETON      CLOUDY    42  42 100 N5        29.89R
WATERTOWN      CLOUDY    42  42 100 NW3       29.86S
MONROE         FOG       45  45 100 N3        29.87R VSB 1/2
JANESVILLE     CLOUDY    48  48 100 N7        29.87R FOG
$$

WIZ051-052-058>065-066-070>072-270300-
SOUTHEAST WISCONSIN

CITY           SKY/WX    TMP DP  RH WIND       PRES   REMARKS
MILWAUKEE      CLOUDY    41  39  93 CALM      29.87R
WAUKESHA       DRIZZLE   41  41 100 CALM      29.87R
MILWAUKEE/TIMM DRIZZLE   43  39  87 CALM      29.86S
RACINE         CLOUDY    41  40  96 N3        29.88R FOG
KENOSHA        FOG       48  46  93 CALM      29.86R VSB 3/4
FOND DU LAC    CLOUDY    40  37  89 N7        29.88R
SHEBOYGAN      LGT RAIN  41  39  93 NW3       29.86R
WEST BEND      DRIZZLE   41  41 100 CALM      29.86S
JUNEAU         RAIN      40  39  97 N3        29.87F
$$

LSZ147-162-270300-
LAKE SUPERIOR

STATION/POSITION TIME  TEMP    WIND        PRES    WAVE
                       AIR SEA DIR/SP/G            HT/PER
                 (UTC) (F)     (DEG/KT/KT) (MB)    (FT/S)
DEVILS ISLAND    0200   34      70/  4/  5 1015.5S
PORT WING        0130   34      40/  5/  6 1014.9R
SAXON HARBOR     0140   33     360/  2/  3 1014.2R
$$

LMZ867-665-643>646-270300-
LAKE MICHIGAN

STATION/POSITION TIME  TEMP    WIND        PRES    WAVE
                       AIR SEA DIR/SP/G            HT/PER
                 (UTC) (F)     (DEG/KT/KT) (MB)    (FT/S)
CHAMBERS ISLAND  0140   33     350/  8/  9 1011.5S
NORTHPORT PIER   0140   33     340/  3/  6 1011.9S
KEWAUNEE LAKESHO 0154   37     310/  5/  9 1011.1R
SHEBOYGAN LAKESH 0200   40     310/  5/  5 1011.6R
PORT WASHINGTON  0130   40      CALM  /  2 1012.2R
MILWAUKEE LAKESH 0200   39      30/  6/  6   N/A
KENOSHA   LAKESH 0200   39      20/  2/  3 1011.5
$$

TC  - TEMPERATURE IN CELSIUS
VSB - VISIBILITY IN STATUTE MILES
WCI - WIND CHILL INDEX
HX  - HEAT INDEX





USA.gov is the U.S. government's official web portal to all federal, state and local government web resources and services.